FW9064 Weather Reports


time (UTC)temp
C
wind
direction
speed
KPH
gust
KPH
rain 1hr
cm
rain 24hr
cm
rain mn
cm
humidity
%
barometer
mb
20260906113755 23 110 0.0 0.0 0.00 0.00 0.00 99 1013.3
20260906113255 23 110 0.0 0.0 0.00 0.00 0.00 98 1013.1
20260906112755 23 109 0.0 0.0 0.00 0.00 0.00 98 1013.1
20260906112251 23 110 0.0 0.0 0.00 0.00 0.00 98 1013.0
20260906111750 23 111 0.0 0.0 0.00 0.00 0.00 98 1012.9
20260906111244 23 111 0.0 0.0 0.00 0.00 0.00 98 1013.0
20260906110739 23 111 0.0 0.0 0.00 0.00 0.00 97 1013.0
20260906110236 23 111 0.0 0.0 0.00 0.00 0.00 97 1012.9
20260906105734 24 110 0.0 0.0 0.00 0.00 0.00 96 1013.2
20260906105230 24 120 0.0 0.0 0.00 0.00 0.00 95 1012.9
20260906104725 24 109 0.0 0.0 0.00 0.00 0.00 94 1013.2
20260906104224 24 103 0.0 0.0 0.00 0.00 0.00 94 1013.1
20260906103722 24 109 0.0 0.0 0.00 0.00 0.00 93 1013.3
20260906103217 24 109 0.0 0.0 0.00 0.00 0.00 92 1013.3
20260906102712 25 111 0.0 1.6 0.00 0.00 0.00 92 1013.4
20260906102211 25 112 0.0 0.0 0.00 0.00 0.00 91 1013.5
20260906101706 25 104 0.0 0.0 0.00 0.00 0.00 91 1013.6
20260906101201 25 114 0.0 1.6 0.00 0.00 0.00 91 1013.4
20260906100657 25 111 0.0 0.0 0.00 0.00 0.00 90 1013.3
20260906100157 25 94 3.2 3.2 0.00 0.00 0.00 90 1013.3
20260906095651 25 110 0.0 0.0 0.00 0.00 0.00 90 1013.5
20260906095147 26 90 1.6 1.6 0.00 0.00 0.00 91 1013.3
20260906094646 26 109 0.0 0.0 0.00 0.00 0.00 91 1012.9
20260906094142 26 110 0.0 0.0 0.00 0.00 0.00 90 1012.9
20260906093638 26 112 0.0 0.0 0.00 0.00 0.00 90 1012.6
20260906093138 26 111 0.0 0.0 0.00 0.00 0.00 89 1012.5
20260906092633 26 111 0.0 0.0 0.00 0.00 0.00 90 1012.7
20260906092133 26 110 0.0 0.0 0.00 0.00 0.00 90 1012.3
20260906091629 26 110 0.0 0.0 0.00 0.00 0.00 90 1012.1
20260906091126 26 109 0.0 0.0 0.00 0.00 0.00 90 1012.5
20260906090621 26 103 1.6 1.6 0.00 0.00 0.00 90 1011.9
20260906090121 26 112 0.0 0.0 0.00 0.00 0.00 90 1012.0
20260906085620 26 112 1.6 1.6 0.00 0.00 0.00 90 1012.0
20260906085114 26 72 4.8 8.0 0.00 0.00 0.00 90 1012.1
20260906084609 26 111 0.0 0.0 0.00 0.00 0.00 91 1012.2
20260906084108 26 114 0.0 0.0 0.00 0.00 0.00 92 1012.3
20260906083604 26 111 0.0 0.0 0.00 0.00 0.00 91 1012.5
20260906083103 26 113 0.0 0.0 0.00 0.00 0.00 92 1012.3
20260906082558 26 111 0.0 0.0 0.00 0.00 0.00 91 1012.3
20260906082054 26 111 0.0 0.0 0.00 0.00 0.00 91 1012.4
20260906081550 26 110 0.0 0.0 0.00 0.00 0.00 91 1012.4
20260906081045 26 116 1.6 3.2 0.00 0.00 0.00 91 1012.5
20260906080542 26 112 0.0 0.0 0.00 0.00 0.00 92 1012.6
20260906080037 26 102 1.6 1.6 0.00 0.00 0.00 93 1012.8
20260906075532 26 107 0.0 0.0 0.00 0.00 0.00 94 1012.7
20260906075026 26 110 0.0 0.0 0.00 0.00 0.00 94 1012.5
20260906074521 26 110 0.0 0.0 0.00 0.00 0.00 94 1012.7
20260906074019 26 104 0.0 0.0 0.00 0.00 0.00 94 1012.7
20260906073514 26 105 0.0 0.0 0.00 0.00 0.00 94 1012.3
20260906073011 26 108 0.0 0.0 0.00 0.00 0.00 94 1012.5
20260906072505 26 110 0.0 0.0 0.00 0.00 0.00 94 1012.3
20260906072002 26 109 0.0 0.0 0.00 0.00 0.00 94 1012.3
20260906071457 26 110 0.0 0.0 0.00 0.00 0.00 94 1012.2
20260906070952 26 110 0.0 0.0 0.00 0.00 0.00 95 1012.2
20260906070449 26 109 0.0 0.0 0.00 0.00 0.00 95 1012.4
20260906065944 25 116 0.0 0.0 0.00 0.00 0.00 96 1012.5
20260906065443 25 116 0.0 0.0 0.00 0.00 0.00 96 1012.6
20260906064939 25 116 0.0 0.0 0.00 0.00 0.00 96 1012.6
20260906064436 25 115 0.0 0.0 0.00 0.00 0.00 97 1012.7
20260906063930 25 115 0.0 0.0 0.00 0.00 0.00 97 1012.5
20260906063425 25 114 0.0 0.0 0.00 0.00 0.00 97 1012.8
20260906062920 25 117 0.0 0.0 0.00 0.00 0.00 97 1013.0
20260906062415 25 116 0.0 0.0 0.00 0.00 0.00 97 1012.8
20260906061910 25 115 0.0 0.0 0.00 0.00 0.00 97 1012.7
20260906061406 25 116 0.0 0.0 0.00 0.00 0.00 97 1013.1
20260906060900 25 115 0.0 0.0 0.00 0.00 0.00 97 1013.2
20260906060358 25 116 0.0 0.0 0.00 0.00 0.00 97 1013.3
20260906055854 25 115 0.0 0.0 0.00 0.00 0.00 97 1013.2
20260906055349 25 115 0.0 0.0 0.00 0.00 0.00 97 1013.1
20260906054844 25 115 0.0 0.0 0.00 0.00 0.00 97 1013.2
20260906054339 25 116 0.0 0.0 0.00 0.00 0.00 97 1013.1
20260906053835 25 115 0.0 0.0 0.00 0.00 0.00 97 1013.1
20260906053331 25 115 0.0 0.0 0.00 0.00 0.00 97 1013.3
20260906052826 25 115 0.0 0.0 0.00 0.00 0.00 96 1013.3
20260906052323 25 114 0.0 0.0 0.00 0.00 0.00 96 1013.2
20260906051819 25 117 0.0 0.0 0.00 0.00 0.00 96 1013.2
20260906051319 25 115 0.0 0.0 0.00 0.00 0.00 96 1013.4
20260906050814 25 115 0.0 0.0 0.00 0.00 0.00 96 1013.4
20260906050309 25 116 0.0 0.0 0.00 0.00 0.00 96 1013.6
20260906045808 25 116 0.0 0.0 0.00 0.00 0.00 96 1013.7
20260906045305 25 115 0.0 0.0 0.00 0.00 0.00 96 1013.3
20260906044759 25 116 0.0 0.0 0.00 0.00 0.00 96 1013.6
20260906044253 25 117 0.0 0.0 0.00 0.00 0.00 96 1013.6
20260906043749 25 115 0.0 0.0 0.00 0.00 0.00 96 1013.7
20260906043246 25 116 0.0 0.0 0.00 0.00 0.00 95 1013.4
20260906042745 25 113 0.0 0.0 0.00 0.00 0.00 95 1013.7
20260906042244 25 115 0.0 0.0 0.00 0.00 0.00 95 1013.4
20260906041740 25 115 0.0 0.0 0.00 0.00 0.00 95 1013.3
20260906041235 25 114 0.0 0.0 0.00 0.00 0.00 95 1013.4
20260906040730 25 113 0.0 0.0 0.00 0.00 0.00 95 1013.4
20260906040225 25 116 0.0 0.0 0.00 0.00 0.00 95 1013.2
20260906035721 25 113 0.0 0.0 0.00 0.00 0.00 94 1013.2
20260906035217 25 115 0.0 0.0 0.00 0.00 0.00 95 1013.3
20260906034716 25 120 0.0 0.0 0.00 0.00 0.00 95 1013.3
20260906034211 25 114 0.0 0.0 0.00 0.00 0.00 94 1013.2
20260906033707 25 115 0.0 0.0 0.00 0.00 0.00 94 1013.1
20260906033206 25 116 0.0 0.0 0.00 0.00 0.00 94 1013.3
20260906032703 25 115 0.0 0.0 0.00 0.00 0.00 94 1013.3
20260906032158 26 116 0.0 0.0 0.00 0.00 0.00 94 1013.4
20260906031653 26 117 0.0 0.0 0.00 0.00 0.00 94 1013.4
20260906031148 26 114 0.0 0.0 0.00 0.00 0.00 93 1013.2
20260906030648 26 115 0.0 0.0 0.00 0.00 0.00 93 1013.3
20260906030143 26 115 0.0 0.0 0.00 0.00 0.00 93 1013.3
20260906025642 26 116 0.0 0.0 0.00 0.00 0.00 93 1013.4
20260906025142 26 115 0.0 0.0 0.00 0.00 0.00 93 1013.3
20260906024637 26 115 0.0 0.0 0.00 0.00 0.00 92 1013.2
20260906024136 26 116 0.0 0.0 0.00 0.00 0.00 92 1013.2
20260906023633 26 118 0.0 0.0 0.00 0.00 0.00 91 1013.2
20260906023132 26 129 0.0 0.0 0.00 0.00 0.00 91 1013.1
20260906022627 26 130 0.0 0.0 0.00 0.00 0.00 91 1012.9
20260906022123 26 119 0.0 0.0 0.00 0.00 0.00 90 1013.0
20260906021619 26 112 0.0 0.0 0.00 0.00 0.00 90 1013.0
20260906021117 27 113 0.0 0.0 0.00 0.00 0.00 90 1012.9
20260906020617 27 112 0.0 0.0 0.00 0.00 0.00 89 1013.0
20260906020112 27 112 0.0 0.0 0.00 0.00 0.00 89 1013.0
20260906015606 27 112 0.0 0.0 0.00 0.00 0.00 89 1012.7
20260906015105 27 112 0.0 0.0 0.00 0.00 0.00 88 1013.0
20260906014600 27 113 0.0 0.0 0.00 0.00 0.00 88 1012.8
20260906014056 27 112 0.0 0.0 0.00 0.00 0.00 87 1012.7
20260906013551 27 112 0.0 0.0 0.00 0.00 0.00 87 1012.4
20260906013047 27 124 0.0 0.0 0.00 0.00 0.00 86 1012.4
20260906012542 27 123 0.0 0.0 0.00 0.00 0.00 86 1012.2
20260906012041 28 113 0.0 0.0 0.00 0.00 0.00 85 1012.2
20260906011537 28 114 0.0 0.0 0.00 0.00 0.00 84 1012.0
20260906011037 28 113 0.0 0.0 0.00 0.00 0.00 84 1011.7
20260906010532 28 114 0.0 0.0 0.00 0.00 0.00 83 1011.8
20260906010029 28 113 0.0 0.0 0.00 0.00 0.00 83 1012.0
20260906005528 28 111 0.0 0.0 0.00 0.00 0.00 83 1012.0
20260906005027 28 114 0.0 0.0 0.00 0.00 0.00 83 1011.9
20260906004526 28 112 0.0 0.0 0.00 0.00 0.00 82 1011.7
20260906004021 29 114 0.0 0.0 0.00 0.00 0.00 82 1011.7
20260906003516 29 115 0.0 0.0 0.00 0.00 0.00 81 1011.7
20260906003013 29 108 0.0 1.6 0.00 0.00 0.00 81 1011.7
20260906002507 30 112 0.0 1.6 0.00 0.00 0.00 80 1011.7
20260906002002 30 123 1.6 1.6 0.00 0.00 0.00 80 1011.7
20260906001457 30 117 1.6 3.2 0.00 0.00 0.00 80 1011.6
20260906000946 30 112 0.0 0.0 0.00 0.00 0.00 80 1011.6
20260906000442 30 109 0.0 0.0 0.00 0.00 0.00 79 1011.6
20260905235942 30 115 0.0 0.0 0.00 0.00 0.00 78 1011.8
20260905235436 30 114 0.0 0.0 0.00 0.00 0.00 78 1012.0
20260905234931 31 113 0.0 0.0 0.00 0.00 0.00 78 1012.0
20260905234426 31 113 0.0 1.6 0.00 0.00 0.00 77 1011.8
20260905233921 31 139 1.6 1.6 0.00 0.00 0.00 76 1011.7
20260905233416 31 122 0.0 1.6 0.00 0.00 0.00 76 1011.6
20260905232915 31 215 3.2 3.2 0.00 0.00 0.00 75 1011.8
20260905232412 31 170 3.2 4.8 0.00 0.00 0.00 75 1011.7
20260905231907 31 109 1.6 1.6 0.00 0.00 0.00 75 1011.8
20260905231403 31 115 0.0 0.0 0.00 0.00 0.00 74 1011.8
20260905230859 32 114 0.0 0.0 0.00 0.00 0.00 74 1011.5
20260905230356 32 113 0.0 1.6 0.00 0.00 0.00 73 1011.4
20260905225855 32 115 0.0 0.0 0.00 0.00 0.00 72 1011.7
20260905225351 32 126 1.6 1.6 0.00 0.00 0.00 71 1011.6
20260905224846 32 115 0.0 0.0 0.00 0.00 0.00 71 1011.5
20260905224341 32 113 0.0 1.6 0.00 0.00 0.00 70 1011.3
20260905223836 32 115 0.0 0.0 0.00 0.00 0.00 69 1011.4
20260905223334 32 88 1.6 3.2 0.00 0.00 0.00 69 1011.4
20260905222828 33 120 3.2 4.8 0.00 0.00 0.00 68 1011.4
20260905222327 33 120 1.6 1.6 0.00 0.00 0.00 68 1011.4
20260905221823 33 217 3.2 4.8 0.00 0.00 0.00 67 1011.3
20260905221320 33 115 1.6 4.8 0.00 0.00 0.00 66 1011.3
20260905220816 33 126 0.0 1.6 0.00 0.00 0.00 65 1011.3
20260905220312 34 203 3.2 8.0 0.00 0.00 0.00 65 1011.2
20260905215811 34 113 0.0 0.0 0.00 0.00 0.00 64 1011.1
20260905215307 34 113 1.6 1.6 0.00 0.00 0.00 64 1011.3
20260905214803 34 121 1.6 1.6 0.00 0.00 0.00 64 1011.1
20260905214258 34 127 0.0 0.0 0.00 0.00 0.00 63 1011.3
20260905213753 34 105 0.0 1.6 0.00 0.00 0.00 62 1011.2
20260905213249 35 116 1.6 3.2 0.00 0.00 0.00 60 1011.2
20260905212744 35 117 0.0 0.0 0.00 0.00 0.00 57 1011.2
20260905212243 36 152 1.6 1.6 0.00 0.00 0.00 54 1011.2
20260905211743 36 117 0.0 0.0 0.00 0.00 0.00 53 1011.4
20260905211238 36 97 0.0 0.0 0.00 0.00 0.00 53 1011.4
20260905210735 36 186 1.6 3.2 0.00 0.00 0.00 53 1011.2
20260905210234 36 112 0.0 0.0 0.00 0.00 0.00 51 1011.5
20260905205733 36 113 0.0 0.0 0.00 0.00 0.00 50 1011.3
20260905205229 36 117 0.0 0.0 0.00 0.00 0.00 50 1011.3
20260905204728 36 113 0.0 0.0 0.00 0.00 0.00 50 1011.5
20260905204224 35 105 0.0 0.0 0.00 0.00 0.00 52 1011.4
20260905203723 35 114 0.0 0.0 0.00 0.00 0.00 55 1011.6
20260905203219 35 115 0.0 0.0 0.00 0.00 0.00 53 1011.5
20260905202714 36 115 0.0 0.0 0.00 0.00 0.00 50 1011.6
20260905202210 36 112 0.0 0.0 0.00 0.00 0.00 50 1011.7
20260905201705 36 108 0.0 0.0 0.00 0.00 0.00 52 1011.5
20260905201205 36 269 1.6 1.6 0.00 0.00 0.00 50 1011.8
20260905200700 37 112 0.0 0.0 0.00 0.00 0.00 50 1011.7
20260905200155 37 113 1.6 1.6 0.00 0.00 0.00 48 1011.9
20260905195654 37 112 0.0 0.0 0.00 0.00 0.00 49 1011.7
20260905195149 37 129 1.6 1.6 0.00 0.00 0.00 48 1011.7
20260905194644 37 105 0.0 1.6 0.00 0.00 0.00 48 1011.9
20260905194144 37 94 1.6 1.6 0.00 0.00 0.00 48 1012.0
20260905193638 37 106 0.0 0.0 0.00 0.00 0.00 48 1012.0
20260905193133 37 117 1.6 3.2 0.00 0.00 0.00 47 1012.3
20260905192628 37 117 0.0 1.6 0.00 0.00 0.00 49 1012.1
20260905192125 37 102 3.2 3.2 0.00 0.00 0.00 49 1012.1
20260905191624 37 95 4.8 4.8 0.00 0.00 0.00 47 1012.2
20260905191122 37 117 0.0 1.6 0.00 0.00 0.00 49 1012.4
20260905190621 38 86 3.2 4.8 0.00 0.00 0.00 48 1012.6
20260905190121 38 116 0.0 0.0 0.00 0.00 0.00 48 1012.4
20260905185619 37 113 0.0 0.0 0.00 0.00 0.00 46 1012.8
20260905185114 37 120 1.6 3.2 0.00 0.00 0.00 48 1012.7
20260905184609 38 109 3.2 3.2 0.00 0.00 0.00 47 1012.6
20260905184108 37 138 1.6 1.6 0.00 0.00 0.00 49 1012.9
20260905183607 37 99 0.0 1.6 0.00 0.00 0.00 48 1013.0
20260905183102 37 69 0.0 1.6 0.00 0.00 0.00 50 1012.8
20260905182602 37 129 0.0 0.0 0.00 0.00 0.00 48 1013.2
20260905182057 37 99 1.6 3.2 0.00 0.00 0.00 49 1013.1
20260905181557 37 135 0.0 1.6 0.00 0.00 0.00 52 1013.6
20260905181056 37 138 3.2 4.8 0.00 0.00 0.00 49 1013.6
20260905180551 37 144 1.6 1.6 0.00 0.00 0.00 51 1013.6
20260905180046 36 68 3.2 3.2 0.00 0.00 0.00 51 1013.3
20260905175545 36 88 3.2 3.2 0.00 0.00 0.00 50 1013.5
20260905175041 36 99 4.8 9.7 0.00 0.00 0.00 52 1013.8
20260905174536 35 117 3.2 4.8 0.00 0.00 0.00 54 1013.8
20260905174032 35 113 0.0 0.0 0.00 0.00 0.00 55 1013.8
20260905173528 36 119 0.0 1.6 0.00 0.00 0.00 53 1013.9
20260905173023 36 125 1.6 1.6 0.00 0.00 0.00 54 1014.2
20260905172521 37 105 1.6 1.6 0.00 0.00 0.00 51 1014.2
20260905172017 36 158 1.6 1.6 0.00 0.00 0.00 52 1014.1
20260905171514 37 116 0.0 0.0 0.00 0.00 0.00 51 1014.2
20260905171009 37 103 0.0 1.6 0.00 0.00 0.00 48 1014.2
20260905170506 37 119 0.0 0.0 0.00 0.00 0.00 51 1014.4
20260905170000 37 117 0.0 1.6 0.00 0.00 0.00 50 1014.3
20260905165455 36 103 4.8 4.8 0.00 0.00 0.00 52 1014.6
20260905164950 36 112 3.2 4.8 0.00 0.00 0.00 53 1014.4
20260905164449 37 138 1.6 3.2 0.00 0.00 0.00 51 1014.5
20260905163944 37 106 0.0 1.6 0.00 0.00 0.00 53 1014.6
20260905163441 36 91 1.6 1.6 0.00 0.00 0.00 54 1014.6
20260905162937 35 115 0.0 0.0 0.00 0.00 0.00 56 1014.7
20260905162432 36 98 1.6 3.2 0.00 0.00 0.00 54 1014.7
20260905161927 36 105 0.0 0.0 0.00 0.00 0.00 55 1014.7
20260905161426 36 124 0.0 0.0 0.00 0.00 0.00 55 1014.9
20260905160924 36 133 1.6 1.6 0.00 0.00 0.00 55 1014.7
20260905160418 35 113 1.6 3.2 0.00 0.00 0.00 57 1014.8
20260905155913 35 104 1.6 1.6 0.00 0.00 0.00 58 1014.6
20260905155413 35 110 0.0 0.0 0.00 0.00 0.00 58 1014.7
20260905154911 35 116 0.0 1.6 0.00 0.00 0.00 59 1014.7
20260905154407 35 118 1.6 1.6 0.00 0.00 0.00 60 1014.5
20260905153902 33 112 0.0 0.0 0.00 0.00 0.00 63 1014.4
20260905153359 33 130 3.2 4.8 0.00 0.00 0.00 62 1014.7
20260905152858 34 113 3.2 3.2 0.00 0.00 0.00 62 1014.7
20260905152357 33 115 1.6 1.6 0.00 0.00 0.00 61 1014.6
20260905151853 33 100 1.6 1.6 0.00 0.00 0.00 62 1014.6
20260905151348 33 113 1.6 1.6 0.00 0.00 0.00 63 1014.6
20260905150843 33 107 1.6 1.6 0.00 0.00 0.00 64 1014.7
20260905150337 33 120 4.8 8.0 0.00 0.00 0.00 64 1014.8
20260905145835 32 102 0.0 1.6 0.00 0.00 0.00 65 1014.9
20260905145334 32 107 0.0 0.0 0.00 0.00 0.00 66 1014.7
20260905144834 32 110 1.6 1.6 0.00 0.00 0.00 67 1014.6
20260905144329 32 97 0.0 1.6 0.00 0.00 0.00 68 1014.7
20260905143828 32 84 1.6 3.2 0.00 0.00 0.00 68 1015.0
20260905143322 31 72 1.6 4.8 0.00 0.00 0.00 69 1014.9
20260905142821 31 135 0.0 1.6 0.00 0.00 0.00 69 1014.9
20260905142315 31 80 3.2 4.8 0.00 0.00 0.00 70 1014.9
20260905141812 31 106 1.6 1.6 0.00 0.00 0.00 71 1015.0
20260905141307 31 113 1.6 1.6 0.00 0.00 0.00 73 1014.9
20260905140803 31 104 1.6 1.6 0.00 0.00 0.00 73 1015.1
20260905140302 31 105 3.2 3.2 0.00 0.00 0.00 72 1014.8
20260905135801 30 114 1.6 1.6 0.00 0.00 0.00 76 1015.0
20260905135257 30 106 0.0 0.0 0.00 0.00 0.00 78 1015.1
20260905134757 30 112 0.0 0.0 0.00 0.00 0.00 77 1015.0
20260905134251 29 114 0.0 0.0 0.00 0.00 0.00 81 1015.0
20260905133745 28 110 0.0 0.0 0.00 0.00 0.00 83 1015.0
20260905133241 28 95 0.0 3.2 0.00 0.00 0.00 84 1015.1
20260905132740 27 114 1.6 1.6 0.00 0.00 0.00 84 1014.9
20260905132235 27 102 1.6 1.6 0.00 0.00 0.00 85 1014.9
20260905131730 27 101 0.0 0.0 0.00 0.00 0.00 87 1015.0
20260905131226 27 110 0.0 0.0 0.00 0.00 0.00 89 1015.0
20260905130720 27 110 0.0 0.0 0.00 0.00 0.00 90 1014.9
20260905130219 26 107 0.0 0.0 0.00 0.00 0.00 90 1015.1
20260905125715 26 109 0.0 0.0 0.00 0.00 0.00 91 1015.1
20260905125210 25 109 0.0 0.0 0.00 0.00 0.00 93 1015.0
20260905124706 25 110 0.0 0.0 0.00 0.00 0.00 95 1015.3
20260905124202 25 109 0.0 0.0 0.00 0.00 0.00 97 1015.2
20260905123656 24 112 0.0 0.0 0.00 0.00 0.00 98 1015.2
20260905123154 24 109 0.0 0.0 0.00 0.00 0.00 99 1015.2
20260905122653 23 108 0.0 0.0 0.00 0.00 0.00 99 1014.9
20260905122148 23 112 0.0 0.0 0.00 0.00 0.00 99 1015.1
20260905121642 23 111 0.0 0.0 0.00 0.00 0.00 99 1015.1
20260905121138 23 110 0.0 0.0 0.00 0.00 0.00 99 1014.9
20260905120637 23 109 0.0 0.0 0.00 0.00 0.00 99 1015.0
20260905120132 23 110 0.0 0.0 0.00 0.00 0.00 99 1014.9
20260905115631 23 112 0.0 0.0 0.00 0.00 0.00 99 1015.0
20260905115127 22 111 0.0 0.0 0.00 0.00 0.00 99 1014.9
20260905114626 22 110 0.0 0.0 0.00 0.00 0.00 99 1014.9
20260905114125 22 113 0.0 0.0 0.00 0.00 0.00 99 1014.9